Regional Weather Roundup
Issued by NWS

Home | Current Version | Previous Version | Graphics & Text | Print | Product List | Glossary On
Versions: 1 2 3 4 5 6 7 8 9 10 11 12 13 14 15 16 17 18 19 20 21 22 23 24 25 26 27 28 29 30 31 32 33 34 35 36 37 38 39 40 41 42 43 44 45 46 47 48 49 50
948
ASUS43 KIND 191309
RWRIN

WEATHER ROUNDUP FOR INDIANA
NATIONAL WEATHER SERVICE INDIANAPOLIS IN
900 AM EDT THU OCT 19 2017

NOTE: "FAIR" INDICATES FEW OR NO CLOUDS BELOW 12,000 FEET WITH NO
SIGNIFICANT WEATHER AND/OR OBSTRUCTIONS TO VISIBILITY.

* - STATION DOES NOT REPORT WEATHER SUCH AS PRECIPITATION OR FOG.

+ - STATION NOT QUALITY CONTROLLED BY THE NATIONAL WEATHER SERVICE.
    USE DATA WITH CAUTION...ESPECIALLY DEWPOINT AND RELATIVE
    HUMIDITY OBSERVATIONS.

INZ001>003-010>013-019-020-191400-
NORTHWEST INDIANA

CITY           SKY/WX    TMP DP  RH WIND       PRES   REMARKS
GARY /AIRPORT/ PTCLDY    52  48  87 SW6       30.14R
KNOX *+        CLEAR     46  45  93 SW6       30.13R
LA PORTE +     CLEAR     48  46  91 W5        30.14R
MICHIGAN CITY+ PTCLDY    48  46  93 SW5       30.14R
MONTICELLO +   CLEAR     50  47  90 SW7       30.14S
RENSSELAER +   PTCLDY    50  45  81 SW3       30.15R
VALPARAISO     CLEAR     52  48  86 SW6       30.14R

$$

LMZ046-743>745-191400-
SOUTHERN LAKE MICHIGAN

STATION/POSITION TIME  TEMP    WIND        PRES    WAVE
                       AIR SEA DIR/SP/G            HT
                 (UTC) (F)     (DEG/KT/KT) (MB)    (FT)
BURNS HARBOR     1240   55     230/  7/  9 1020.7R
MICHIGAN CITY    1240   54     190/  8/  9   N/A
5NW MICH CITY    1300   56 57  250/ 12/ 14   N/A     2

$$

INZ004-005-014>016-021>024-191400-
NORTH CENTRAL INDIANA

CITY           SKY/WX    TMP DP  RH WIND       PRES   REMARKS
ELKHART        CLEAR     50  46  87 SW5       30.12R
GOSHEN         CLEAR     52  45  77 SW12      30.12R
LOGANSPORT +   CLEAR     52  46  82 SW8       30.16R
PERU/GRISSOM   PTCLDY    51  48  89 SW7       30.15R
SOUTH BEND     CLEAR     50  47  89 SW7       30.14R
WARSAW +       CLEAR     54  46  76 SW7       30.14R

$$

INZ006>009-017-018-025>027-191400-
NORTHEAST INDIANA

CITY           SKY/WX    TMP DP  RH WIND       PRES   REMARKS
AUBURN +       MOSUNNY   52  45  76 SW8       30.13R
FORT WAYNE     CLOUDY    52  46  80 SW12      30.14S
HUNTINGTON +   CLOUDY    52  47  82 SW7       30.15S
KENDALLVILLE + CLOUDY    52  47  84 SW7       30.13R

$$

INZ028-029-035-036-043>045-051>053-191400-
WEST CENTRAL INDIANA

CITY           SKY/WX    TMP DP  RH WIND       PRES   REMARKS
CRAWFORDSVL +  CLEAR     52  48  87 SW6       30.18R
GREENCASTLE +  CLEAR     54  45  71 CALM      30.19R
LAFAYETTE      CLOUDY    52  48  86 SW6       30.16R
TERRE HAUTE    CLEAR     53  47  79 S5        30.18S

$$

INZ030>032-037>040-046>048-054>057-064-065-191400-
CENTRAL INDIANA

CITY           SKY/WX    TMP DP  RH WIND       PRES   REMARKS
ANDERSON       SUNNY     54  46  76 SW12      30.18R
CP ATTERBURY +   N/A     46  45  93 CALM      30.21R FOG
COLUMBUS       SUNNY     48  45  87 S6        30.22R
FISHERS *+     SUNNY     54  50  87 SW6       30.19R
FRANKFORT +    PTCLDY    55  49  80 SW6       30.18R
GREENWOOD *+   SUNNY     53  49  86 CALM      30.19S
INDIANAPOLIS   PTSUNNY   52  47  83 SW5       30.19R
-EAGLE CREEK   SUNNY     54  46  74 SW5       30.18R
KOKOMO +       CLOUDY    54  47  77 SW9       30.17R
MT COMFORT *+  SUNNY     50  48  93 S5        30.19R
SHELBYVILLE    SUNNY     52  44  74 S10       30.19S
ZIONSVILLE +   SUNNY     52  46  82 SW7       30.18R

$$

INZ033-034-041-042-049-050-058-059-191400-
EAST CENTRAL INDIANA

CITY           SKY/WX    TMP DP  RH WIND       PRES   REMARKS
MUNCIE         SUNNY     56  46  69 SW7       30.17R
RICHMOND +     SUNNY     50  45  81 SW6       30.21R

$$

INZ060-061-067>069-081>083-085>088-191400-
SOUTHWEST INDIANA

CITY           SKY/WX    TMP DP  RH WIND       PRES   REMARKS
EVANSVILLE     CLEAR     51  48  89 S3        30.24R
HUNTINGBURG +  SUNNY     52  47  83 MISG      30.24
WASHINGTON +   CLEAR     51  47  86 S3        30.21R

$$

INZ062-063-066-070>080-084-089>092-191400-
SOUTH CENTRAL AND SOUTHEAST INDIANA

CITY           SKY/WX    TMP DP  RH WIND       PRES   REMARKS
BEDFORD +      SUNNY     50  45  81 S5        30.22R
BLOOMINGTON    SUNNY     54  45  71 SW7       30.20S
MADISON *+     SUNNY     50  46  87 S3        30.26R
NORTH VERNON + SUNNY     50  45  81 S6        30.24R
SEYMOUR +      SUNNY     52  46  82 S3        30.23R

$$





USA.gov is the U.S. government's official web portal to all federal, state and local government web resources and services.